CAPE
0 0 0 0 0 0 0 0 0 0 0 0 0 11 137 277 101 0 0 0 0 0 17 2 5 8 5 0 8 9 24 48 0 43 0 16 5 12 6 1 22 3 1 0 0 0 2 0 1 0 0 0 0 0 0 0 0 0 36 9 0 0 0 0 0 1 0 0 0 0 0 0 0 0 0 0 6 1 0 0 5 3 581 688 417 413 131
0 0 0 0 0 0 0 0 0 0 0 0 0 35 119 110 0 0 0 0 0 12 33 6 42 0 2 4 7 0 5 8 45 36 1 22 76 22 42 2 0 4 0 1 17 1 12 3 2 0 0 0 0 0 0 0 0 0 0 26 0 0 0 0 2 0 0 0 0 0 0 0 0 0 0 0 0 2 4 4 0 4 26 341 133 228 200
0 0 0 0 0 0 0 0 0 0 0 0 0 130 218 228 41 0 0 0 0 7 4 58 9 4 19 18 26 30 10 0 0 7 10 0 14 36 22 0 0 0 0 4 0 0 0 0 0 0 0 0 0 0 0 0 0 0 0 788 0 0 0 5 1 2 1 0 0 0 0 0 0 0 0 0 0 0 0 0 2 0 2 89 214 211 126
0 0 0 0 0 0 0 0 0 0 0 0 3 138 222 180 358 7 0 0 0 0 0 0 13 13 45 70 16 8 24 0 0 0 27 0 6 0 9 3 0 0 0 0 0 0 0 1 1 0 0 0 0 0 0 0 0 122 446 337 0 0 0 43 37 4 1 6 0 0 0 0 0 0 0 0 0 0 0 0 0 0 216 519 323 254 148
0 0 0 0 0 0 0 0 0 0 0 0 0 276 750 136 6 0 74 20 0 0 0 25 0 32 0 70 0 78 0 4 1 0 16 1 6 17 0 1 0 8 6 67 1 0 0 0 0 0 0 0 0 0 0 0 0 28 79 0 0 0 0 0 3 0 0 0 0 0 0 0 0 0 0 0 0 0 0 0 0 31 64 227 462 319 171
0 0 0 0 0 0 0 0 0 0 0 0 5 439 248 23 0 6 43 6 20 73 0 8 0 0 2 9 0 0 19 18 32 3 0 0 6 40 28 24 4 96 12 67 340 0 73 0 0 0 0 0 0 0 0 0 0 0 0 0 0 0 0 0 0 0 0 0 0 0 0 0 0 3 0 0 0 0 0 0 0 0 26 410 506 317 220
0 0 0 0 0 0 0 0 0 0 0 0 260 162 45 45 0 0 0 8 0 0 0 0 0 0 0 0 40 29 35 2 0 16 40 2 31 11 118 36 38 20 42 133 158 289 336 219 7 187 14 0 0 0 0 0 0 0 0 0 0 0 0 12 0 9 1 0 0 0 0 0 0 0 0 0 0 0 0 0 0 0 256 390 346 490 157
0 0 0 0 0 0 0 0 0 0 0 211 536 0 28 38 34 144 57 3 0 0 0 0 0 0 5 42 0 14 8 20 0 0 27 81 31 0 43 18 62 30 10 19 349 341 62 36 358 21 31 23 0 66 0 12 0 0 0 0 0 0 22 12 0 0 0 0 0 0 0 0 0 0 0 0 0 0 0 0 0 10 230 420 436 214 94
0 0 0 0 0 0 0 0 0 0 0 536 260 0 3 141 5 52 142 112 0 0 0 108 113 52 130 85 40 85 0 0 0 0 0 22 44 40 42 15 10 4 74 68 77 56 76 129 105 68 50 84 4 60 45 0 4 3 0 0 0 0 0 0 0 0 0 0 0 0 0 0 0 0 0 0 0 0 0 0 0 0 305 446 335 313 174
0 0 0 0 0 0 0 0 0 0 0 388 822 26 6 111 251 329 178 144 0 6 0 0 46 29 0 0 0 4 0 0 30 60 33 0 0 0 6 2 38 32 48 66 46 33 24 18 16 1 0 0 0 0 0 0 0 3 5 1 0 0 0 0 0 0 0 0 0 0 0 0 0 0 0 0 0 0 0 0 0 0 572 448 272 298 183
0 0 0 0 0 0 0 0 0 0 0 14 235 340 0 47 206 600 416 233 2 0 145 11 0 2 0 0 1 0 0 12 8 245 30 6 0 0 0 100 118 50 114 51 26 3 2 0 0 0 0 0 0 0 0 0 0 0 0 0 0 0 0 0 2 0 0 0 1 0 0 0 0 0 0 0 0 0 0 2 6 2 340 244 226 234 145
0 0 0 0 0 0 0 0 0 0 0 0 0 147 0 53 253 593 346 143 37 0 32 0 0 0 0 0 0 5 9 2 6 64 29 0 0 101 90 50 228 181 10 0 0 0 0 0 0 0 0 0 0 0 0 0 0 0 0 0 0 0 0 0 0 0 0 15 0 0 0 0 0 0 0 0 0 0 0 33 4 40 69 349 202 144 62
0 0 0 0 0 1 0 0 0 0 0 0 23 350 22 41 249 502 459 191 111 99 50 0 0 0 0 0 0 0 0 0 0 0 0 28 0 0 0 32 0 0 0 0 0 0 0 6 0 0 0 0 0 0 0 0 0 0 0 0 0 0 0 0 0 0 1 0 2 0 0 44 0 0 0 0 0 0 1 12 16 39 14 289 255 196 117
0 0 0 0 0 0 0 0 0 0 0 0 0 223 52 61 208 608 750 548 467 0 0 2 0 0 77 26 0 0 1 0 0 41 13 21 74 4 0 0 0 0 0 0 0 0 78 0 46 0 0 0 0 0 0 0 0 0 0 0 0 0 0 2 0 0 1 0 1 2 99 0 0 0 0 0 3 3 25 15 34 139 191 300 241 149 146
0 0 0 0 0 0 1 1 0 0 0 0 0 182 188 93 344 433 641 607 227 52 0 404 65 25 0 2 18 118 48 25 61 77 0 0 92 5 1 0 0 0 0 14 128 0 65 80 159 163 32 22 16 27 0 0 0 0 0 0 0 0 0 22 0 0 0 0 2 6 10 0 0 0 0 0 0 0 0 0 0 7 156 257 167 68 28
0 0 0 0 0 0 0 0 0 0 0 0 0 211 419 270 282 309 745 816 233 89 6 0 0 0 27 46 13 0 107 62 128 59 74 55 38 4 0 0 0 0 0 0 4 116 80 56 104 59 246 45 22 106 113 73 34 0 0 0 0 0 0 3 16 16 0 0 0 0 0 26 19 0 0 0 0 0 0 0 3 0 8 75 161 46 0
0 0 0 0 0 0 0 1 0 0 0 0 0 66 418 418 219 406 710 779 328 8 0 0 0 0 3 34 26 0 0 77 39 164 36 147 79 64 53 0 3 0 236 0 102 13 0 31 2 78 199 228 77 174 83 49 85 49 3 0 0 0 0 0 1 11 13 2 0 0 0 152 6 0 0 0 0 0 0 0 0 0 0 0 9 2 1
0 0 0 0 0 0 0 1 0 0 0 0 0 3 397 295 214 242 471 554 171 205 0 0 0 55 126 20 94 87 0 3 0 0 7 99 105 86 76 4 18 25 0 0 57 58 46 41 76 67 54 127 28 90 52 173 175 146 62 17 0 0 0 0 0 0 0 0 7 1 191 20 5 0 0 0 0 0 0 0 22 3 0 0 0 3 0
0 0 0 0 0 0 0 0 1 0 0 0 0 9 343 290 232 124 159 248 193 188 0 0 0 0 0 0 0 0 0 0 4 47 80 56 106 110 0 21 0 78 155 6 45 62 33 143 76 58 41 101 63 43 76 0 63 224 100 87 9 11 1 2 0 0 1 1 0 0 212 20 10 0 0 0 0 0 3 55 13 8 0 0 0 2 8
0 0 0 0 0 0 0 0 1 0 0 0 0 0 28 475 232 131 80 3 106 220 82 7 0 0 0 0 26 102 5 7 6 0 29 49 135 74 77 120 49 0 4 23 20 59 90 143 20 432 46 50 225 40 45 58 99 245 60 38 82 104 5 32 11 0 0 0 10 4 27 78 28 0 0 0 0 313 107 18 0 0 0 1 1 0 0
0 0 0 0 0 0 0 0 0 0 0 0 0 0 226 846 142 240 2 12 24 251 282 77 0 0 0 0 0 0 0 0 158 435 266 126 304 63 10 60 194 79 146 66 166 21 64 110 94 105 78 175 431 75 135 123 67 135 140 177 102 41 46 65 69 87 46 5 1 99 279 96 11 0 1 21 241 108 94 41 2 0 0 0 0 0 0
0 0 0 0 0 0 0 0 0 1 0 0 0 0 306 365 439 499 163 148 2 12 92 21 0 0 0 0 0 0 0 2 184 138 158 229 398 44 39 85 206 180 224 219 116 116 101 262 209 25 80 135 30 122 135 35 15 290 73 90 47 116 66 410 144 65 8 225 55 0 102 91 19 82 88 112 127 106 42 2 0 0 0 0 0 0 0
0 0 0 0 0 0 0 0 0 1 0 0 0 2 169 137 39 81 138 103 245 236 201 135 147 0 0 0 0 0 0 0 0 0 0 0 114 228 69 103 296 294 267 101 212 150 226 18 94 136 92 102 125 137 101 138 67 242 45 30 0 182 243 570 502 245 158 160 312 197 161 91 63 96 104 116 81 18 6 6 0 0 0 0 12 1 0
0 0 0 0 0 0 0 0 0 0 0 0 0 0 0 1 151 123 9 99 256 146 161 182 28 104 177 70 0 0 0 0 0 0 194 69 0 215 232 408 171 217 235 372 462 239 179 82 109 77 101 29 46 72 173 279 229 185 208 223 112 2 106 245 167 41 63 134 87 175 131 54 71 28 37 29 1 0 0 0 0 0 0 0 0 0 1
0 0 0 0 0 0 0 0 0 0 0 0 0 0 0 168 264 38 77 77 195 195 62 269 29 34 0 0 0 0 0 0 0 0 0 5 0 44 277 341 358 447 310 520 562 421 320 178 160 206 66 102 61 212 132 62 129 186 216 150 371 49 63 74 105 120 49 93 172 66 32 118 57 2 0 1 0 0 0 0 0 1 0 0 0 0 0
0 0 0 0 0 0 0 0 0 1 0 0 0 0 9 174 113 55 192 455 480 352 229 81 43 44 38 0 0 62 16 0 0 0 0 8 30 0 22 523 600 408 264 209 205 131 126 220 227 87 16 74 195 121 276 249 117 179 135 276 117 84 66 15 27 24 105 96 135 193 156 12 48 4 0 7 0 0 0 0 1 0 0 0 0 0 0
0 0 0 0 0 0 1 0 2 1 0 0 0 0 0 56 101 93 128 238 240 219 96 24 141 157 57 13 23 0 0 0 0 0 7 0 0 56 33 7 2 185 706 615 378 303 373 348 193 186 280 307 230 84 253 218 213 170 263 372 32 52 71 15 287 79 114 161 120 190 93 98 60 12 0 1 12 0 0 0 3 0 0 0 0 0 0
0 0 0 0 0 1 0 1 1 0 0 0 0 0 0 26 67 0 27 129 132 312 313 74 216 281 1 70 15 4 35 0 0 0 1 40 42 17 71 156 363 479 690 283 392 507 475 388 333 365 180 327 290 86 322 292 272 221 238 142 158 308 461 229 400 351 225 297 477 409 365 22 29 84 4 0 0 3 1 0 0 0 1 4 1 2 0
0 0 0 1 2 1 0 1 1 0 0 0 0 0 18 24 122 11 4 35 128 48 85 124 105 21 252 226 26 22 12 2 203 85 106 109 136 66 4 312 346 772 439 444 443 422 245 349 276 140 148 350 179 42 51 183 275 131 57 219 151 213 262 181 406 372 261 355 267 487 458 197 180 45 37 28 0 0 0 3 0 0 3 1 1 1 2
0 0 0 1 1 1 0 0 0 0 0 0 0 83 309 203 83 84 0 0 0 0 7 293 293 461 103 63 12 169 277 56 157 188 213 79 368 544 784 559 716 456 578 396 324 187 259 185 271 285 216 140 33 148 68 155 211 415 297 219 153 202 189 254 268 148 122 101 212 234 418 308 111 37 22 24 9 1 0 0 1 3 1 1 9 0 0
0 0 1 1 0 1 1 1 0 0 0 0 31 344 292 248 99 0 0 3 1 36 116 226 277 128 73 137 156 102 336 191 212 451 382 446 502 429 405 476 619 567 818 606 275 548 134 364 22 184 457 473 177 231 217 68 79 67 339 297 358 279 218 206 251 219 152 390 370 230 360 312 189 49 112 76 12 0 0 0 9 2 4 0 2 0 0
0 0 0 2 1 1 1 0 0 0 0 0 119 231 188 137 155 0 0 0 3 76 222 168 360 398 84 104 250 97 26 321 271 221 393 300 446 307 390 356 678 318 604 348 512 388 216 282 322 178 134 224 137 47 189 76 13 62 223 187 284 169 83 197 225 200 188 167 248 381 334 183 83 278 235 131 46 0 0 0 2 110 9 1 0 3 4
0 0 1 1 0 0 0 0 0 0 0 0 0 0 0 0 0 0 0 0 18 138 174 295 370 274 75 161 649 223 376 274 537 188 462 201 315 440 267 396 584 397 251 187 200 36 316 262 443 238 266 200 85 54 172 69 146 284 128 66 262 178 146 169 172 159 154 233 224 276 219 148 404 409 197 152 62 1 0 0 0 4 2 0 0 0 0
0 0 0 0 0 0 0 0 0 0 0 0 91 8 4 0 0 0 0 6 91 178 141 180 230 306 621 392 87 257 223 175 258 195 270 400 379 170 363 207 279 171 397 192 531 237 549 208 311 402 218 118 142 109 84 137 71 113 74 286 191 269 210 132 148 210 292 160 168 335 335 304 386 551 75 23 8 13 4 1 2 1 0 3 0 0 0
0 0 0 0 0 0 0 0 0 0 214 160 238 38 0 0 0 0 0 30 291 548 435 384 157 10 383 108 103 501 257 85 4 128 62 438 149 254 433 219 367 101 269 251 384 353 203 372 379 111 276 30 38 45 54 117 177 117 105 209 147 164 210 182 106 96 140 300 138 129 182 201 171 136 58 56 24 14 0 1 0 0 6 3 2 5 5
0 0 0 0 0 0 0 0 0 47 204 125 155 0 0 0 0 0 38 36 95 439 496 232 74 247 423 147 79 347 113 76 367 187 285 67 199 247 308 262 45 358 382 329 143 562 227 452 97 108 514 225 52 109 178 193 278 65 179 271 326 269 255 431 243 348 319 357 349 340 334 319 278 203 70 99 68 20 0 0 1 4 6 3 2 5 2
0 0 0 0 0 16 184 297 180 104 191 14 0 0 0 0 6 36 123 66 104 48 417 452 196 255 246 50 70 462 44 54 78 78 477 225 249 5 138 238 97 494 397 228 110 67 288 436 236 197 111 152 207 558 295 161 150 4 26 33 158 77 6 84 251 327 483 355 525 522 427 395 390 305 175 78 58 9 0 2 6 0 0 4 1 8 0
0 0 0 24 108 350 288 161 156 8 0 0 0 49 138 0 397 295 196 14 88 55 311 177 216 212 417 243 69 239 71 232 58 49 256 228 68 143 114 151 336 60 210 177 225 190 321 185 147 133 148 63 69 153 250 95 217 440 427 373 408 284 186 264 160 115 288 405 393 250 236 260 216 299 303 240 100 96 27 0 0 0 0 3 1 2 2
0 0 18 153 213 67 359 380 0 0 0 5 0 123 318 282 201 406 442 415 252 63 160 87 551 452 200 80 252 84 24 6 69 178 20 481 8 7 166 57 115 173 181 159 329 226 179 184 58 78 90 69 505 88 451 76 88 191 236 206 212 271 341 263 288 406 146 166 31 111 438 252 288 322 326 194 150 156 259 27 11 10 2 0 4 2 0
24 184 239 163 99 200 78 0 0 0 29 49 267 188 319 366 105 103 190 77 81 446 142 448 304 107 319 63 0 334 342 102 90 25 0 39 88 11 52 19 213 83 80 127 210 360 187 71 84 96 73 120 249 156 225 23 18 137 263 323 462 391 297 246 191 159 274 194 98 6 24 172 370 500 526 498 145 243 211 147 183 166 26 28 17 50 0
89 190 4 56 36 74 126 34 34 58 65 144 123 124 90 54 144 232 181 146 136 353 388 24 213 299 228 455 610 150 523 228 555 328 179 123 152 28 85 88 332 48 20 67 284 265 219 196 51 110 235 171 67 174 251 58 165 295 243 325 304 314 166 196 124 176 186 224 207 81 86 140 24 48 152 344 256 200 348 178 192 21 2 0 6 22 2
0 0 71 14 13 18 26 42 67 72 139 180 144 19 15 87 515 206 258 165 181 191 81 29 12 39 124 51 122 66 441 155 2 62 40 116 474 48 27 40 61 56 9 124 100 127 171 50 21 76 166 88 151 36 80 286 146 174 156 186 224 245 261 119 146 150 151 82 72 90 80 65 144 185 306 244 158 300 170 347 298 166 2 35 26 12 0
0 0 0 62 9 29 117 41 72 36 4 1 6 0 10 57 206 202 233 165 209 81 238 229 179 153 286 21 416 416 267 46 132 470 330 183 238 54 46 44 22 70 106 71 50 30 17 38 70 138 64 39 157 195 45 151 191 161 173 218 187 218 126 81 116 108 70 51 51 54 63 66 70 76 77 108 218 145 229 188 123 162 178 80 56 14 2
0 14 8 202 41 18 34 2 37 12 28 0 0 0 0 18 442 44 41 346 281 139 57 140 121 108 3 176 157 376 581 349 246 56 6 104 21 58 17 29 43 74 116 77 102 2 104 172 288 70 365 364 266 150 222 311 232 96 41 24 3 3 6 2 1 7 21 46 47 4 6 21 112 80 10 22 85 136 202 345 431 233 83 22 21 84 17
12 75 24 6 2 4 2 0 0 28 0 0 0 17 70 46 86 54 61 76 147 75 113 50 491 143 57 165 239 62 5 57 207 41 68 128 19 22 9 43 36 49 76 33 137 172 11 9 114 256 34 17 78 233 226 152 39 6 0 0 1 0 0 0 0 0 0 8 15 2 6 14 18 32 56 4 24 36 170 220 551 284 197 112 61 68 158
14 7 0 0 0 0 0 0 0 0 2 0 112 22 16 31 117 85 60 39 62 350 15 454 4 41 43 217 0 12 87 30 6 8 23 156 14 16 47 12 281 182 44 22 11 2 7 114 61 46 69 54 75 44 4 2 0 0 0 6 4 2 4 0 0 0 1 13 32 12 3 4 9 8 5 7 20 53 74 157 174 319 444 206 101 54 103
0 14 5 0 0 0 0 0 0 0 64 14 592 58 202 255 15 279 353 237 267 79 12 119 135 101 18 200 38 71 18 116 11 112 34 8 22 8 16 62 27 34 8 0 9 8 20 34 26 16 1 0 0 2 3 4 6 4 9 5 6 1 0 0 0 0 4 12 16 20 1 7 56 107 53 11 7 12 48 39 289 572 361 196 72 12 62
0 2 0 0 0 0 0 0 1 9 767 203 160 266 148 685 358 422 515 212 147 22 145 8 178 18 8 98 0 0 0 1 0 0 1 0 22 24 14 23 21 50 6 24 42 51 60 7 5 0 1 5 5 3 6 2 6 8 8 5 9 7 7 5 1 1 1 1 5 8 12 75 31 19 80 173 83 100 84 106 391 310 320 149 26 4 16
6 11 2 0 0 0 0 45 395 96 95 225 209 57 126 228 338 281 220 323 207 65 14 87 29 0 0 0 0 0 0 0 0 0 0 0 0 1 1 1 9 14 14 77 27 69 1 1 5 2 1 0 4 4 3 1 7 29 26 2 7 0 10 9 8 3 0 2 22 69 45 55 35 65 82 108 84 124 110 103 218 187 181 118 27 6 17
0 0 0 0 0 0 0 0 2 185 147 57 122 163 201 219 179 201 171 237 112 4 54 27 9 0 0 0 0 0 0 0 0 0 2 0 0 2 6 0 7 17 56 9 29 4 0 0 4 6 2 2 0 11 29 0 10 24 19 11 10 0 7 6 10 4 0 0 13 30 15 3 14 25 46 44 122 198 78 71 87 126 237 3 0 0 38
0 0 0 0 0 0 4 12 177 359 94 112 191 183 126 206 221 282 222 150 265 144 302 79 0 0 0 0 0 0 0 0 0 1 0 0 0 2 6 0 3 13 23 2 0 0 0 0 0 0 0 2 2 0 11 22 18 34 18 30 25 20 13 18 40 5 36 12 35 52 25 23 27 74 89 5 0 96 220 140 120 200 131 2 0 3 14
0 0 0 0 0 6 191 133 590 194 46 132 373 358 204 192 160 839 396 248 221 37 2 0 3 0 0 0 0 0 0 3 2 1 1 1 56 33 3 17 17 0 0 0 0 0 0 0 0 2 4 6 6 9 11 8 6 5 4 7 11 34 24 20 52 94 128 93 66 126 113 111 116 142 126 97 24 0 31 262 150 191 80 83 8 10 9
Wind_Speed
nan nan nan nan nan nan nan nan nan nan nan nan nan nan 4 10 10 nan nan nan nan nan nan nan nan nan nan nan nan nan nan nan nan nan nan nan nan nan nan nan nan nan nan nan nan nan nan nan nan nan nan nan nan nan nan nan nan nan nan nan nan nan nan nan nan nan nan nan nan nan nan nan nan nan nan nan nan nan nan nan nan nan 33 34 33 34 31
nan nan nan nan nan nan nan nan nan nan nan nan nan nan 2 3 nan nan nan nan nan nan nan nan nan nan nan nan nan nan nan nan nan nan nan nan nan nan nan nan nan nan nan nan nan nan nan nan nan nan nan nan nan nan nan nan nan nan nan nan nan nan nan nan nan nan nan nan nan nan nan nan nan nan nan nan nan nan nan nan nan nan nan 32 31 38 36
nan nan nan nan nan nan nan nan nan nan nan nan nan 2 3 1 nan nan nan nan nan nan nan nan nan nan nan nan nan nan nan nan nan nan nan nan nan nan nan nan nan nan nan nan nan nan nan nan nan nan nan nan nan nan nan nan nan nan nan 40 nan nan nan nan nan nan nan nan nan nan nan nan nan nan nan nan nan nan nan nan nan nan nan nan 39 38 37
nan nan nan nan nan nan nan nan nan nan nan nan nan 1 1 3 5 nan nan nan nan nan nan nan nan nan nan nan nan nan nan nan nan nan nan nan nan nan nan nan nan nan nan nan nan nan nan nan nan nan nan nan nan nan nan nan nan 34 36 37 nan nan nan nan nan nan nan nan nan nan nan nan nan nan nan nan nan nan nan nan nan nan 47 50 44 38 31
nan nan nan nan nan nan nan nan nan nan nan nan nan 1 4 2 nan nan nan nan nan nan nan nan nan nan nan nan nan nan nan nan nan nan nan nan nan nan nan nan nan nan nan nan nan nan nan nan nan nan nan nan nan nan nan nan nan nan nan nan nan nan nan nan nan nan nan nan nan nan nan nan nan nan nan nan nan nan nan nan nan nan nan 48 45 40 36
nan nan nan nan nan nan nan nan nan nan nan nan nan 3 3 nan nan nan nan nan nan nan nan nan nan nan nan nan nan nan nan nan nan nan nan nan nan nan nan nan nan nan nan nan 17 nan nan nan nan nan nan nan nan nan nan nan nan nan nan nan nan nan nan nan nan nan nan nan nan nan nan nan nan nan nan nan nan nan nan nan nan nan nan 44 41 41 41
nan nan nan nan nan nan nan nan nan nan nan nan 5 3 nan nan nan nan nan nan nan nan nan nan nan nan nan nan nan nan nan nan nan nan nan nan nan nan 8 nan nan nan nan 23 20 24 20 19 nan 18 nan nan nan nan nan nan nan nan nan nan nan nan nan nan nan nan nan nan nan nan nan nan nan nan nan nan nan nan nan nan nan nan 51 47 43 45 45
nan nan nan nan nan nan nan nan nan nan nan 14 2 nan nan nan nan 7 nan nan nan nan nan nan nan nan nan nan nan nan nan nan nan nan nan nan nan nan nan nan nan nan nan nan 22 17 nan nan 13 nan nan nan nan nan nan nan nan nan nan nan nan nan nan nan nan nan nan nan nan nan nan nan nan nan nan nan nan nan nan nan nan nan 52 47 50 50 nan
nan nan nan nan nan nan nan nan nan nan nan 3 8 nan nan 8 nan nan 7 7 nan nan nan 3 2 nan 7 nan nan nan nan nan nan nan nan nan nan nan nan nan nan nan nan nan nan nan nan 22 24 nan nan nan nan nan nan nan nan nan nan nan nan nan nan nan nan nan nan nan nan nan nan nan nan nan nan nan nan nan nan nan nan nan 47 45 46 48 51
nan nan nan nan nan nan nan nan nan nan nan 4 6 nan nan 9 9 7 5 5 nan nan nan nan nan nan nan nan nan nan nan nan nan nan nan nan nan nan nan nan nan nan nan nan nan nan nan nan nan nan nan nan nan nan nan nan nan nan nan nan nan nan nan nan nan nan nan nan nan nan nan nan nan nan nan nan nan nan nan nan nan nan 45 41 39 43 47
nan nan nan nan nan nan nan nan nan nan nan nan 5 7 nan nan 9 8 6 7 nan nan 3 nan nan nan nan nan nan nan nan nan nan 5 nan nan nan nan nan nan 9 nan 8 nan nan nan nan nan nan nan nan nan nan nan nan nan nan nan nan nan nan nan nan nan nan nan nan nan nan nan nan nan nan nan nan nan nan nan nan nan nan nan 38 40 44 46 44
nan nan nan nan nan nan nan nan nan nan nan nan nan 3 nan nan 6 6 7 7 nan nan nan nan nan nan nan nan nan nan nan nan nan nan nan nan nan 10 nan nan 7 8 nan nan nan nan nan nan nan nan nan nan nan nan nan nan nan nan nan nan nan nan nan nan nan nan nan nan nan nan nan nan nan nan nan nan nan nan nan nan nan nan nan 44 46 44 nan
nan nan nan nan nan nan nan nan nan nan nan nan nan 5 nan nan 5 6 7 7 6 nan nan nan nan nan nan nan nan nan nan nan nan nan nan nan nan nan nan nan nan nan nan nan nan nan nan nan nan nan nan nan nan nan nan nan nan nan nan nan nan nan nan nan nan nan nan nan nan nan nan nan nan nan nan nan nan nan nan nan nan nan nan 40 42 41 41
nan nan nan nan nan nan nan nan nan nan nan nan nan 6 nan nan 7 7 7 7 8 nan nan nan nan nan nan nan nan nan nan nan nan nan nan nan nan nan nan nan nan nan nan nan nan nan nan nan nan nan nan nan nan nan nan nan nan nan nan nan nan nan nan nan nan nan nan nan nan nan nan nan nan nan nan nan nan nan nan nan nan 38 37 37 39 39 39
nan nan nan nan nan nan nan nan nan nan nan nan nan 4 6 nan 6 5 4 3 5 nan nan 4 nan nan nan nan nan 3 nan nan nan nan nan nan nan nan nan nan nan nan nan nan 9 nan nan nan 6 7 nan nan nan nan nan nan nan nan nan nan nan nan nan nan nan nan nan nan nan nan nan nan nan nan nan nan nan nan nan nan nan nan 35 36 37 nan nan
nan nan nan nan nan nan nan nan nan nan nan nan nan 6 5 6 5 5 5 4 5 nan nan nan nan nan nan nan nan nan 3 nan 6 nan nan nan nan nan nan nan nan nan nan nan nan 11 nan nan 9 nan 10 nan nan 17 10 nan nan nan nan nan nan nan nan nan nan nan nan nan nan nan nan nan nan nan nan nan nan nan nan nan nan nan nan nan 32 nan nan
nan nan nan nan nan nan nan nan nan nan nan nan nan nan 4 8 6 6 6 5 3 nan nan nan nan nan nan nan nan nan nan nan nan 3 nan 5 nan nan nan nan nan nan 13 nan 10 nan nan nan nan nan 12 13 nan 12 nan nan nan nan nan nan nan nan nan nan nan nan nan nan nan nan nan 33 nan nan nan nan nan nan nan nan nan nan nan nan nan nan nan
nan nan nan nan nan nan nan nan nan nan nan nan nan nan 3 8 7 6 4 4 4 4 nan nan nan nan 6 nan nan nan nan nan nan nan nan nan 7 nan nan nan nan nan nan nan nan nan nan nan nan nan nan 25 nan nan nan 20 14 16 nan nan nan nan nan nan nan nan nan nan nan nan 35 nan nan nan nan nan nan nan nan nan nan nan nan nan nan nan nan
nan nan nan nan nan nan nan nan nan nan nan nan nan nan 4 7 7 6 4 3 4 4 nan nan nan nan nan nan nan nan nan nan nan nan nan nan 9 10 nan nan nan nan 15 nan nan nan nan 11 nan nan nan 25 nan nan nan nan nan 20 nan nan nan nan nan nan nan nan nan nan nan nan 35 nan nan nan nan nan nan nan nan nan nan nan nan nan nan nan nan
nan nan nan nan nan nan nan nan nan nan nan nan nan nan nan 5 7 8 nan nan 5 4 nan nan nan nan nan nan nan 5 nan nan nan nan nan nan 12 nan nan 10 nan nan nan nan nan nan nan 12 nan 20 nan nan 21 nan nan nan nan 19 nan nan nan 24 nan nan nan nan nan nan nan nan nan nan nan nan nan nan nan 35 37 nan nan nan nan nan nan nan nan
nan nan nan nan nan nan nan nan nan nan nan nan nan nan 3 9 6 8 nan nan nan 4 5 nan nan nan nan nan nan nan nan nan 6 5 8 8 13 nan nan nan 13 nan 12 nan 9 nan nan 13 nan 22 nan 20 26 nan 16 17 nan 21 19 21 19 nan nan nan nan nan nan nan nan nan 35 nan nan nan nan nan 38 35 nan nan nan nan nan nan nan nan nan
nan nan nan nan nan nan nan nan nan nan nan nan nan nan 1 8 9 8 5 2 nan nan nan nan nan nan nan nan nan nan nan nan 14 10 8 9 17 nan nan nan 13 12 15 15 11 12 17 19 21 nan nan 20 nan 17 20 nan nan 27 nan nan nan 26 nan 32 31 nan nan 34 nan nan 28 nan nan nan nan 39 37 37 nan nan nan nan nan nan nan nan nan
nan nan nan nan nan nan nan nan nan nan nan nan nan nan 4 7 nan nan 4 2 1 4 4 4 3 nan nan nan nan nan nan nan nan nan nan nan 13 18 nan 13 17 16 15 15 13 13 16 nan nan 20 nan 24 28 24 24 20 nan 33 nan nan nan 34 32 32 29 28 34 30 36 36 32 nan nan nan 40 40 nan nan nan nan nan nan nan nan nan nan nan
nan nan nan nan nan nan nan nan nan nan nan nan nan nan nan nan 6 7 nan nan 1 4 1 1 nan 7 8 nan nan nan nan nan nan nan 18 nan nan 18 21 18 18 17 16 20 19 16 18 nan 18 nan 19 nan nan nan 24 25 22 33 32 24 22 nan 26 24 26 nan nan 31 nan 31 33 nan nan nan nan nan nan nan nan nan nan nan nan nan nan nan nan
nan nan nan nan nan nan nan nan nan nan nan nan nan nan nan 2 5 nan nan nan 4 4 nan 6 nan nan nan nan nan nan nan nan nan nan nan nan nan nan 19 18 17 19 20 16 18 17 19 17 19 23 nan 27 nan 24 33 nan 24 34 30 30 27 nan nan nan 25 27 nan nan 35 nan nan 35 nan nan nan nan nan nan nan nan nan nan nan nan nan nan nan
nan nan nan nan nan nan nan nan nan nan nan nan nan nan nan 6 8 nan 3 1 1 2 2 nan nan nan nan nan nan nan nan nan nan nan nan nan nan nan nan 23 21 23 17 18 18 17 18 18 20 nan nan nan 30 25 25 30 23 23 23 28 32 nan nan nan nan nan 29 nan 38 38 36 nan nan nan nan nan nan nan nan nan nan nan nan nan nan nan nan
nan nan nan nan nan nan nan nan nan nan nan nan nan nan nan nan 4 nan 8 9 5 7 nan nan 6 11 nan nan nan nan nan nan nan nan nan nan nan nan nan nan nan 20 19 19 19 16 19 19 20 22 26 26 30 nan 25 23 25 25 25 30 nan nan nan nan 30 nan 29 34 34 34 nan nan nan nan nan nan nan nan nan nan nan nan nan nan nan nan nan
nan nan nan nan nan nan nan nan nan nan nan nan nan nan nan nan nan nan nan 7 6 5 4 nan 8 12 nan nan nan nan nan nan nan nan nan nan nan nan nan 20 20 19 22 22 19 19 19 18 20 26 25 24 23 nan 26 26 28 26 25 30 33 32 28 24 27 30 33 33 39 40 38 nan nan nan nan nan nan nan nan nan nan nan nan nan nan nan nan
nan nan nan nan nan nan nan nan nan nan nan nan nan nan nan nan 2 nan nan nan 2 nan nan 5 9 nan 10 14 nan nan nan nan 18 nan 18 19 20 nan nan 19 20 27 23 24 23 22 19 18 26 24 24 22 22 nan nan 24 26 25 nan 35 33 34 33 29 28 30 29 36 37 38 35 37 37 nan nan nan nan nan nan nan nan nan nan nan nan nan nan
nan nan nan nan nan nan nan nan nan nan nan nan nan nan 4 9 nan nan nan nan nan nan nan 9 10 14 13 nan nan 17 21 nan 19 18 19 nan 19 21 23 22 23 25 29 25 25 23 24 21 22 23 23 23 nan 24 nan 25 26 30 36 33 33 34 32 30 28 30 32 36 35 35 31 35 33 nan nan nan nan nan nan nan nan nan nan nan nan nan nan
nan nan nan nan nan nan nan nan nan nan nan nan nan 3 4 7 nan nan nan nan nan nan 7 10 13 15 nan 17 16 19 19 21 19 22 22 24 26 23 25 25 30 29 26 27 24 25 26 23 nan 21 21 21 21 20 19 nan nan nan 32 33 32 30 29 28 27 27 29 32 33 34 33 31 34 nan 35 nan nan nan nan nan nan nan nan nan nan nan nan
nan nan nan nan nan nan nan nan nan nan nan nan 5 6 8 8 7 nan nan nan nan nan 9 10 14 18 nan 17 20 nan nan 20 23 22 23 22 24 24 26 24 26 29 26 23 23 22 20 22 21 20 20 20 19 nan 17 nan nan nan 24 26 28 28 nan 26 25 26 29 28 31 33 31 32 nan 32 31 34 nan nan nan nan nan 47 nan nan nan nan nan
nan nan nan nan nan nan nan nan nan nan nan nan nan nan nan nan nan nan nan nan nan 8 10 12 13 15 nan 20 17 23 22 22 23 23 26 26 24 27 26 29 29 28 30 24 25 nan 25 20 21 16 17 22 nan nan 13 nan 13 16 18 nan 26 26 25 24 23 26 29 29 28 29 32 32 32 29 28 32 nan nan nan nan nan nan nan nan nan nan nan
nan nan nan nan nan nan nan nan nan nan nan nan nan nan nan nan nan nan nan nan nan 8 12 14 13 16 20 25 nan 15 17 21 23 24 25 30 29 25 27 24 28 27 30 24 24 22 23 18 15 18 22 15 12 10 nan 10 nan 13 nan 18 21 23 24 24 21 21 24 25 24 26 31 29 29 30 nan nan nan nan nan nan nan nan nan nan nan nan nan
nan nan nan nan nan nan nan nan nan nan 3 2 8 nan nan nan nan nan nan nan 7 14 15 15 15 nan 19 20 17 24 26 nan nan 30 nan 31 27 25 29 27 29 23 26 21 21 19 18 17 20 17 15 nan nan nan nan 10 10 14 15 17 20 20 18 19 20 nan 23 22 21 22 24 26 28 29 nan nan nan nan nan nan nan nan nan nan nan nan nan
nan nan nan nan nan nan nan nan nan nan 3 5 9 nan nan nan nan nan nan nan nan 9 10 12 nan 12 10 13 nan 24 24 nan 25 25 24 nan 29 24 24 26 nan 26 26 25 18 19 16 20 nan 14 17 15 nan 13 11 13 16 nan 15 15 18 17 19 21 19 18 23 26 25 25 25 26 27 28 nan nan nan nan nan nan nan nan nan nan nan nan nan
nan nan nan nan nan nan 4 3 8 7 8 nan nan nan nan nan nan nan 9 nan 15 nan 11 11 10 13 14 nan nan 24 nan nan nan nan 24 21 22 nan 26 26 nan 25 27 24 21 nan 15 12 11 11 15 12 13 18 18 15 19 nan nan nan 26 nan nan nan 23 23 24 25 25 25 26 26 27 30 29 nan nan nan nan nan nan nan nan nan nan nan nan
nan nan nan nan 6 6 5 6 8 nan nan nan nan nan 6 nan 5 8 11 nan nan nan 15 16 12 8 12 16 nan 23 nan 22 nan nan 22 22 nan 23 24 23 27 nan 20 18 20 21 17 15 13 13 11 nan nan 23 17 nan 21 19 23 24 25 26 23 23 26 21 19 20 22 22 22 23 25 26 27 27 nan nan nan nan nan nan nan nan nan nan nan
nan nan nan 7 7 nan 9 9 nan nan nan nan nan 2 5 6 6 9 11 13 15 nan 16 nan 15 15 15 nan 23 nan nan nan nan 18 nan 24 nan nan 23 nan 24 21 21 18 18 17 15 17 nan nan nan nan 17 nan 17 nan nan 26 26 25 25 25 25 25 23 22 23 24 nan 20 24 24 23 25 26 25 26 28 28 nan nan nan nan nan nan nan nan
nan 2 7 7 nan 10 nan nan nan nan nan nan 5 3 3 7 8 8 13 nan nan 10 13 16 15 12 14 nan nan 23 21 19 nan nan nan nan nan nan nan nan 22 nan nan 16 17 17 14 nan nan nan nan 20 22 21 24 nan nan 27 27 24 24 24 25 26 26 25 25 25 nan nan nan 32 33 32 31 29 26 25 28 29 30 35 nan nan nan nan nan
nan 5 nan nan nan nan 7 nan nan nan nan 2 3 5 nan nan 11 10 8 11 11 12 11 nan 20 18 15 19 21 21 25 22 22 22 19 20 22 nan nan nan 21 nan nan nan 19 18 17 14 nan 17 21 22 nan 26 26 nan 25 26 25 25 25 26 26 28 28 28 28 28 28 nan nan 27 nan nan 28 31 35 36 29 32 33 nan nan nan nan nan nan
nan nan nan nan nan nan nan nan nan nan 3 3 2 nan nan nan 8 8 6 11 16 15 nan nan nan nan 23 nan 20 nan 23 21 nan nan nan 20 23 nan nan nan nan nan nan 21 nan 21 19 nan nan nan 21 nan 24 nan nan 25 25 25 27 27 27 27 29 30 30 30 31 nan nan nan nan nan 29 27 26 27 29 32 32 32 31 31 nan nan nan nan nan
nan nan nan nan nan nan 3 nan nan nan nan nan nan nan nan nan 6 8 12 16 15 nan 16 16 19 18 20 nan 21 16 18 nan 21 22 21 21 24 nan nan nan nan nan 19 nan nan nan nan nan nan 22 nan nan 23 26 nan 27 27 27 27 30 30 31 32 nan 34 33 nan nan nan nan nan nan nan nan nan 26 26 27 30 32 30 30 32 nan nan nan nan
nan nan nan 4 nan nan nan nan nan nan nan nan nan nan nan nan 9 nan nan 13 15 13 nan 21 23 22 nan 24 23 21 21 25 23 nan nan 23 nan nan nan nan nan nan 20 nan 24 nan 23 25 24 nan 26 30 32 31 30 32 32 nan nan nan nan nan nan nan nan nan nan nan nan nan nan nan 35 nan nan nan nan 20 26 30 32 32 nan nan nan nan nan
nan nan nan nan nan nan nan nan nan nan nan nan nan nan nan nan nan nan nan nan 13 nan 23 nan 18 18 nan 21 19 nan nan nan 26 nan nan 21 nan nan nan nan nan nan nan nan 19 23 nan nan 27 31 nan nan nan 33 36 36 nan nan nan nan nan nan nan nan nan nan nan nan nan nan nan nan nan nan nan nan nan nan 27 27 32 34 33 31 nan nan 32
nan nan nan nan nan nan nan nan nan nan nan nan 9 nan nan nan 8 nan nan nan nan 22 nan 23 nan nan nan 18 nan nan nan nan nan nan nan 20 nan nan nan nan 29 24 nan nan nan nan nan 31 nan nan nan nan nan nan nan nan nan nan nan nan nan nan nan nan nan nan nan nan nan nan nan nan nan nan nan nan nan nan nan 26 26 31 37 38 33 nan 35
nan nan nan nan nan nan nan nan nan nan nan nan 10 nan 9 9 nan 14 14 10 7 nan nan 17 17 18 nan 16 nan nan nan 22 nan 18 nan nan nan nan nan nan nan nan nan nan nan nan nan nan nan nan nan nan nan nan nan nan nan nan nan nan nan nan nan nan nan nan nan nan nan nan nan nan nan 46 nan nan nan nan nan nan 28 32 36 38 nan nan nan
nan nan nan nan nan nan nan nan nan nan 8 8 8 8 11 9 8 10 10 12 10 nan 16 nan 15 nan nan nan nan nan nan nan nan nan nan nan nan nan nan nan nan nan nan nan nan nan nan nan nan nan nan nan nan nan nan nan nan nan nan nan nan nan nan nan nan nan nan nan nan nan nan nan nan nan nan 45 nan nan nan 42 36 33 34 39 nan nan nan
nan nan nan nan nan nan nan nan 7 nan nan 7 10 nan 8 8 9 8 11 11 12 nan nan nan nan nan nan nan nan nan nan nan nan nan nan nan nan nan nan nan nan nan nan nan nan nan nan nan nan nan nan nan nan nan nan nan nan nan nan nan nan nan nan nan nan nan nan nan nan nan nan nan nan nan nan 49 nan 43 46 45 42 38 36 36 nan nan nan
nan nan nan nan nan nan nan nan nan 2 7 nan 3 5 9 10 11 12 12 13 15 nan nan nan nan nan nan nan nan nan nan nan nan nan nan nan nan nan nan nan nan nan nan nan nan nan nan nan nan nan nan nan nan nan nan nan nan nan nan nan nan nan nan nan nan nan nan nan nan nan nan nan nan nan nan nan 42 42 nan nan nan 38 38 nan nan nan nan
nan nan nan nan nan nan nan nan 1 2 nan 6 5 5 5 8 11 12 15 15 15 13 15 nan nan nan nan nan nan nan nan nan nan nan nan nan nan nan nan nan nan nan nan nan nan nan nan nan nan nan nan nan nan nan nan nan nan nan nan nan nan nan nan nan nan nan nan nan nan nan nan nan nan nan nan nan nan nan 39 41 42 41 38 nan nan nan nan
nan nan nan nan nan nan 8 4 11 11 nan 2 3 7 7 8 11 12 10 13 16 nan nan nan nan nan nan nan nan nan nan nan nan nan nan nan nan nan nan nan nan nan nan nan nan nan nan nan nan nan nan nan nan nan nan nan nan nan nan nan nan nan nan nan nan nan 13 nan nan 17 18 22 25 27 31 nan nan nan nan 39 41 40 nan nan nan nan nan
Wind_Direction
nan nan nan nan nan nan nan nan nan nan nan nan nan nan 6 24 28 nan nan nan nan nan nan nan nan nan nan nan nan nan nan nan nan nan nan nan nan nan nan nan nan nan nan nan nan nan nan nan nan nan nan nan nan nan nan nan nan nan nan nan nan nan nan nan nan nan nan nan nan nan nan nan nan nan nan nan nan nan nan nan nan nan 236 246 245 245 252
nan nan nan nan nan nan nan nan nan nan nan nan nan nan 22 76 nan nan nan nan nan nan nan nan nan nan nan nan nan nan nan nan nan nan nan nan nan nan nan nan nan nan nan nan nan nan nan nan nan nan nan nan nan nan nan nan nan nan nan nan nan nan nan nan nan nan nan nan nan nan nan nan nan nan nan nan nan nan nan nan nan nan nan 244 236 244 251
nan nan nan nan nan nan nan nan nan nan nan nan nan 213 188 115 nan nan nan nan nan nan nan nan nan nan nan nan nan nan nan nan nan nan nan nan nan nan nan nan nan nan nan nan nan nan nan nan nan nan nan nan nan nan nan nan nan nan nan 195 nan nan nan nan nan nan nan nan nan nan nan nan nan nan nan nan nan nan nan nan nan nan nan nan 238 242 246
nan nan nan nan nan nan nan nan nan nan nan nan nan 132 144 350 352 nan nan nan nan nan nan nan nan nan nan nan nan nan nan nan nan nan nan nan nan nan nan nan nan nan nan nan nan nan nan nan nan nan nan nan nan nan nan nan nan 192 190 195 nan nan nan nan nan nan nan nan nan nan nan nan nan nan nan nan nan nan nan nan nan nan 210 225 238 253 259
nan nan nan nan nan nan nan nan nan nan nan nan nan 83 340 81 nan nan nan nan nan nan nan nan nan nan nan nan nan nan nan nan nan nan nan nan nan nan nan nan nan nan nan nan nan nan nan nan nan nan nan nan nan nan nan nan nan nan nan nan nan nan nan nan nan nan nan nan nan nan nan nan nan nan nan nan nan nan nan nan nan nan nan 226 233 251 260
nan nan nan nan nan nan nan nan nan nan nan nan nan 161 158 nan nan nan nan nan nan nan nan nan nan nan nan nan nan nan nan nan nan nan nan nan nan nan nan nan nan nan nan nan 218 nan nan nan nan nan nan nan nan nan nan nan nan nan nan nan nan nan nan nan nan nan nan nan nan nan nan nan nan nan nan nan nan nan nan nan nan nan nan 229 235 243 251
nan nan nan nan nan nan nan nan nan nan nan nan 345 159 nan nan nan nan nan nan nan nan nan nan nan nan nan nan nan nan nan nan nan nan nan nan nan nan 216 nan nan nan nan 231 236 218 223 214 nan 214 nan nan nan nan nan nan nan nan nan nan nan nan nan nan nan nan nan nan nan nan nan nan nan nan nan nan nan nan nan nan nan nan 233 243 244 239 245
nan nan nan nan nan nan nan nan nan nan nan 145 5 nan nan nan nan 226 nan nan nan nan nan nan nan nan nan nan nan nan nan nan nan nan nan nan nan nan nan nan nan nan nan nan 246 245 nan nan 221 nan nan nan nan nan nan nan nan nan nan nan nan nan nan nan nan nan nan nan nan nan nan nan nan nan nan nan nan nan nan nan nan nan 243 245 248 251 nan
nan nan nan nan nan nan nan nan nan nan nan 210 202 nan nan 201 nan nan 185 156 nan nan nan 332 318 nan 289 nan nan nan nan nan nan nan nan nan nan nan nan nan nan nan nan nan nan nan nan 227 230 nan nan nan nan nan nan nan nan nan nan nan nan nan nan nan nan nan nan nan nan nan nan nan nan nan nan nan nan nan nan nan nan nan 243 247 251 249 247
nan nan nan nan nan nan nan nan nan nan nan 215 196 nan nan 212 212 198 197 155 nan nan nan nan nan nan nan nan nan nan nan nan nan nan nan nan nan nan nan nan nan nan nan nan nan nan nan nan nan nan nan nan nan nan nan nan nan nan nan nan nan nan nan nan nan nan nan nan nan nan nan nan nan nan nan nan nan nan nan nan nan nan 252 251 248 245 245
nan nan nan nan nan nan nan nan nan nan nan nan 185 196 nan nan 196 182 178 156 nan nan 160 nan nan nan nan nan nan nan nan nan nan 188 nan nan nan nan nan nan 229 nan 227 nan nan nan nan nan nan nan nan nan nan nan nan nan nan nan nan nan nan nan nan nan nan nan nan nan nan nan nan nan nan nan nan nan nan nan nan nan nan nan 245 239 246 249 253
nan nan nan nan nan nan nan nan nan nan nan nan nan 146 nan nan 183 179 163 161 nan nan nan nan nan nan nan nan nan nan nan nan nan nan nan nan nan 227 nan nan 214 251 nan nan nan nan nan nan nan nan nan nan nan nan nan nan nan nan nan nan nan nan nan nan nan nan nan nan nan nan nan nan nan nan nan nan nan nan nan nan nan nan nan 248 249 254 nan
nan nan nan nan nan nan nan nan nan nan nan nan nan 176 nan nan 172 189 168 168 145 nan nan nan nan nan nan nan nan nan nan nan nan nan nan nan nan nan nan nan nan nan nan nan nan nan nan nan nan nan nan nan nan nan nan nan nan nan nan nan nan nan nan nan nan nan nan nan nan nan nan nan nan nan nan nan nan nan nan nan nan nan nan 254 252 253 255
nan nan nan nan nan nan nan nan nan nan nan nan nan 134 nan nan 198 193 197 189 156 nan nan nan nan nan nan nan nan nan nan nan nan nan nan nan nan nan nan nan nan nan nan nan nan nan nan nan nan nan nan nan nan nan nan nan nan nan nan nan nan nan nan nan nan nan nan nan nan nan nan nan nan nan nan nan nan nan nan nan nan 243 246 251 253 255 256
nan nan nan nan nan nan nan nan nan nan nan nan nan 108 227 nan 201 193 173 155 160 nan nan 254 nan nan nan nan nan 311 nan nan nan nan nan nan nan nan nan nan nan nan nan nan 235 nan nan nan 241 244 nan nan nan nan nan nan nan nan nan nan nan nan nan nan nan nan nan nan nan nan nan nan nan nan nan nan nan nan nan nan nan nan 248 248 251 nan nan
nan nan nan nan nan nan nan nan nan nan nan nan nan 182 247 216 178 194 196 182 191 nan nan nan nan nan nan nan nan nan 221 nan 287 nan nan nan nan nan nan nan nan nan nan nan nan 232 nan nan 242 nan 247 nan nan 255 241 nan nan nan nan nan nan nan nan nan nan nan nan nan nan nan nan nan nan nan nan nan nan nan nan nan nan nan nan nan 247 nan nan
nan nan nan nan nan nan nan nan nan nan nan nan nan nan 218 226 206 193 196 195 183 nan nan nan nan nan nan nan nan nan nan nan nan 291 nan 317 nan nan nan nan nan nan 241 nan 252 nan nan nan nan nan 269 291 nan 242 nan nan nan nan nan nan nan nan nan nan nan nan nan nan nan nan nan 244 nan nan nan nan nan nan nan nan nan nan nan nan nan nan nan
nan nan nan nan nan nan nan nan nan nan nan nan nan nan 177 235 207 190 205 203 197 214 nan nan nan nan 254 nan nan nan nan nan nan nan nan nan 334 nan nan nan nan nan nan nan nan nan nan nan nan nan nan 252 nan nan nan 247 258 259 nan nan nan nan nan nan nan nan nan nan nan nan 243 nan nan nan nan nan nan nan nan nan nan nan nan nan nan nan nan
nan nan nan nan nan nan nan nan nan nan nan nan nan nan 322 243 223 209 202 198 223 216 nan nan nan nan nan nan nan nan nan nan nan nan nan nan 303 290 nan nan nan nan 297 nan nan nan nan 244 nan nan nan 253 nan nan nan nan nan 258 nan nan nan nan nan nan nan nan nan nan nan nan 239 nan nan nan nan nan nan nan nan nan nan nan nan nan nan nan nan
nan nan nan nan nan nan nan nan nan nan nan nan nan nan nan 244 250 235 nan nan 202 176 nan nan nan nan nan nan nan 276 nan nan nan nan nan nan 302 nan nan 321 nan nan nan nan nan nan nan 242 nan 246 nan nan 257 nan nan nan nan 247 nan nan nan 253 nan nan nan nan nan nan nan nan nan nan nan nan nan nan nan 244 248 nan nan nan nan nan nan nan nan
nan nan nan nan nan nan nan nan nan nan nan nan nan nan 220 279 237 258 nan nan nan 184 245 nan nan nan nan nan nan nan nan nan 297 295 275 284 284 nan nan nan 287 nan 275 nan 262 nan nan 242 nan 245 nan 242 255 nan 250 246 nan 270 258 255 253 nan nan nan nan nan nan nan nan nan 236 nan nan nan nan nan 245 252 nan nan nan nan nan nan nan nan nan
nan nan nan nan nan nan nan nan nan nan nan nan nan nan 139 266 266 251 228 236 nan nan nan nan nan nan nan nan nan nan nan nan 267 272 279 288 300 nan nan nan 315 298 275 275 277 279 265 249 247 nan nan 244 nan 250 245 nan nan 266 nan nan nan 257 nan 238 240 nan nan 235 nan nan 249 nan nan nan nan 254 254 250 nan nan nan nan nan nan nan nan nan
nan nan nan nan nan nan nan nan nan nan nan nan nan nan 196 213 nan nan 185 172 90 89 116 103 23 nan nan nan nan nan nan nan nan nan nan nan 299 302 nan 299 285 273 273 273 267 263 266 nan nan 267 nan 261 266 243 234 235 nan 254 nan nan nan 245 245 243 241 246 244 252 246 248 252 nan nan nan 252 255 nan nan nan nan nan nan nan nan nan nan nan
nan nan nan nan nan nan nan nan nan nan nan nan nan nan nan nan 204 207 nan nan 123 160 137 359 nan 335 311 nan nan nan nan nan nan nan 286 nan nan 301 288 281 283 299 278 266 270 272 267 nan 270 nan 260 nan nan nan 257 254 238 236 233 251 256 nan 246 243 242 nan nan 247 nan 252 251 nan nan nan nan nan nan nan nan nan nan nan nan nan nan nan nan
nan nan nan nan nan nan nan nan nan nan nan nan nan nan nan 58 248 nan nan nan 223 200 nan 271 nan nan nan nan nan nan nan nan nan nan nan nan nan nan 298 301 291 290 298 292 286 284 286 277 270 270 nan 259 nan 257 258 nan 248 239 239 235 224 nan nan nan 239 243 nan nan 250 nan nan 253 nan nan nan nan nan nan nan nan nan nan nan nan nan nan nan
nan nan nan nan nan nan nan nan nan nan nan nan nan nan nan 214 218 nan 219 268 276 319 287 nan nan nan nan nan nan nan nan nan nan nan nan nan nan nan nan 304 307 299 292 290 288 285 278 276 274 nan nan nan 264 256 253 260 253 246 239 242 240 nan nan nan nan nan 245 nan 251 247 245 nan nan nan nan nan nan nan nan nan nan nan nan nan nan nan nan
nan nan nan nan nan nan nan nan nan nan nan nan nan nan nan nan 232 nan 222 226 213 302 nan nan 354 334 nan nan nan nan nan nan nan nan nan nan nan nan nan nan nan 305 303 292 283 283 285 283 277 276 274 268 262 nan 251 249 253 248 243 250 nan nan nan nan 220 nan 243 235 238 252 nan nan nan nan nan nan nan nan nan nan nan nan nan nan nan nan nan
nan nan nan nan nan nan nan nan nan nan nan nan nan nan nan nan nan nan nan 226 236 242 255 nan 316 295 nan nan nan nan nan nan nan nan nan nan nan nan nan 308 308 303 286 283 294 299 295 289 284 272 269 267 264 nan 259 256 253 250 250 249 245 252 255 244 240 235 235 228 228 230 230 nan nan nan nan nan nan nan nan nan nan nan nan nan nan nan nan
nan nan nan nan nan nan nan nan nan nan nan nan nan nan nan nan 272 nan nan nan 270 nan nan 326 347 nan 308 297 nan nan nan nan 317 nan 313 312 315 nan nan 303 294 294 297 294 295 296 295 289 282 281 273 258 259 nan nan 258 257 250 nan 253 250 243 236 237 236 235 247 242 237 235 237 243 235 nan nan nan nan nan nan nan nan nan nan nan nan nan nan
nan nan nan nan nan nan nan nan nan nan nan nan nan nan 306 302 nan nan nan nan nan nan nan 310 317 314 328 nan nan 311 318 nan 324 321 314 nan 298 297 291 293 294 297 299 295 291 294 287 286 284 283 283 278 nan 259 nan 257 254 253 257 255 251 245 241 242 241 241 242 244 244 243 236 242 251 nan nan nan nan nan nan nan nan nan nan nan nan nan nan
nan nan nan nan nan nan nan nan nan nan nan nan nan 278 291 296 nan nan nan nan nan nan 312 321 327 316 nan 315 309 327 325 319 313 303 304 305 305 306 309 315 309 306 306 305 308 307 305 303 nan 288 278 278 272 275 269 nan nan nan 257 254 255 250 245 242 239 241 244 250 251 244 240 246 244 nan 253 nan nan nan nan nan nan nan nan nan nan nan nan
nan nan nan nan nan nan nan nan nan nan nan nan 244 246 245 237 242 nan nan nan nan nan 325 320 326 325 nan 325 322 nan nan 323 318 319 317 317 315 315 319 321 312 306 307 308 305 305 307 302 302 293 287 288 290 nan 282 nan nan nan 256 258 257 253 nan 257 254 246 245 246 252 250 247 245 nan 243 249 258 nan nan nan nan nan 257 nan nan nan nan nan
nan nan nan nan nan nan nan nan nan nan nan nan nan nan nan nan nan nan nan nan nan 332 325 327 327 323 nan 327 332 329 321 330 326 323 323 323 323 316 323 322 317 310 304 314 313 nan 299 299 294 295 293 292 nan nan 293 nan 276 262 258 nan 269 265 261 261 261 252 246 242 244 250 250 242 247 247 243 252 nan nan nan nan nan nan nan nan nan nan nan
nan nan nan nan nan nan nan nan nan nan nan nan nan nan nan nan nan nan nan nan nan 330 334 333 330 335 328 323 nan 338 345 335 323 322 326 325 323 327 319 323 320 323 317 320 309 314 307 299 304 296 288 294 303 292 nan 296 nan 272 nan 265 271 272 269 267 264 261 252 247 249 248 253 258 257 258 nan nan nan nan nan nan nan nan nan nan nan nan nan
nan nan nan nan nan nan nan nan nan nan 266 279 266 nan nan nan nan nan nan nan 323 334 336 340 334 nan 321 330 328 321 332 nan nan 335 nan 324 329 328 321 330 319 324 316 317 324 324 319 314 301 307 310 nan nan nan nan 294 292 286 277 272 259 253 263 268 263 nan 261 265 262 259 254 250 251 254 nan nan nan nan nan nan nan nan nan nan nan nan nan
nan nan nan nan nan nan nan nan nan nan 277 248 255 nan nan nan nan nan nan nan nan 328 337 327 nan 330 323 326 nan 334 333 nan 326 328 325 nan 325 326 331 327 nan 324 317 326 321 313 313 301 nan 309 295 300 nan 306 294 274 257 nan 270 264 274 278 269 274 273 267 269 266 263 261 258 256 257 258 nan nan nan nan nan nan nan nan nan nan nan nan nan
nan nan nan nan nan nan 197 221 288 264 242 nan nan nan nan nan nan nan 349 nan 340 nan 339 327 330 331 342 nan nan 322 nan nan nan nan 324 329 326 nan 333 334 nan 319 326 325 326 nan 314 308 322 318 303 299 276 243 228 242 247 nan nan nan 241 nan nan nan 234 243 253 259 264 264 259 259 259 259 260 nan nan nan nan nan nan nan nan nan nan nan nan
nan nan nan nan 191 181 215 253 246 nan nan nan nan nan 319 nan 323 321 328 nan nan nan 342 340 344 324 343 346 nan 321 nan 332 nan nan 329 330 nan 336 329 335 327 nan 334 328 311 316 312 322 331 323 304 nan nan 269 268 nan 275 264 253 248 244 247 241 235 233 223 238 256 257 257 259 258 260 256 258 263 nan nan nan nan nan nan nan nan nan nan nan
nan nan nan 186 186 nan 217 244 nan nan nan nan nan 321 319 324 334 331 326 326 323 nan 340 nan 335 353 350 nan 325 nan nan nan nan 331 nan 327 nan nan 333 nan 326 338 337 337 318 317 333 327 nan nan nan nan 276 nan 265 nan nan 262 261 251 246 245 249 246 244 247 243 232 nan 225 251 258 249 253 258 258 260 260 260 nan nan nan nan nan nan nan nan
nan 235 186 191 nan 221 nan nan nan nan nan nan 333 347 328 324 340 329 319 nan nan 328 333 333 333 328 314 nan nan 332 329 343 nan nan nan nan nan nan nan nan 333 nan nan 344 321 326 328 nan nan nan nan 287 289 280 270 nan nan 264 265 264 253 251 248 245 244 247 245 245 nan nan nan 229 233 241 240 238 246 262 267 263 261 259 nan nan nan nan nan
nan 165 nan nan nan nan 222 nan nan nan nan 334 321 338 nan nan 346 337 343 347 341 330 318 nan 337 329 318 331 350 333 329 342 340 339 342 341 335 nan nan nan 336 nan nan nan 323 327 321 311 nan 304 303 292 nan 279 272 nan 268 266 265 264 261 258 250 249 245 245 245 241 240 nan nan 251 nan nan 236 242 243 237 239 257 251 nan nan nan nan nan nan
nan nan nan nan nan nan nan nan nan nan 338 331 298 nan nan nan 323 330 328 346 342 335 nan nan nan nan 343 nan 324 nan 327 326 nan nan nan 344 335 nan nan nan nan nan nan 326 nan 326 323 nan nan nan 293 nan 280 nan nan 274 271 267 264 265 263 258 255 252 251 251 250 nan nan nan nan nan 241 247 252 249 246 248 246 248 255 259 nan nan nan nan nan
nan nan nan nan nan nan 213 nan nan nan nan nan nan nan nan nan 349 339 347 348 331 nan 337 339 337 339 326 nan 324 319 319 nan 339 339 345 341 336 nan nan nan nan nan 335 nan nan nan nan nan nan 306 nan nan 298 286 nan 281 279 276 273 270 266 263 256 nan 254 254 nan nan nan nan nan nan nan nan nan 245 250 253 256 258 257 254 250 nan nan nan nan
nan nan nan 191 nan nan nan nan nan nan nan nan nan nan nan nan 325 nan nan 342 341 335 nan 344 339 341 nan 332 330 332 334 334 341 nan nan 334 nan nan nan nan nan nan 333 nan 326 nan 323 314 308 nan 306 301 293 289 288 285 282 nan nan nan nan nan nan nan nan nan nan nan nan nan nan nan 244 nan nan nan nan 261 261 254 255 258 nan nan nan nan nan
nan nan nan nan nan nan nan nan nan nan nan nan nan nan nan nan nan nan nan nan 337 nan 358 nan 343 347 nan 327 336 nan nan nan 327 nan nan 333 nan nan nan nan nan nan nan nan 328 324 nan nan 315 313 nan nan nan 291 288 286 nan nan nan nan nan nan nan nan nan nan nan nan nan nan nan nan nan nan nan nan nan nan 242 246 254 255 253 249 nan nan 264
nan nan nan nan nan nan nan nan nan nan nan nan 10 nan nan nan 308 nan nan nan nan 333 nan 345 nan nan nan 325 nan nan nan nan nan nan nan 334 nan nan nan nan 330 334 nan nan nan nan nan 323 nan nan nan nan nan nan nan nan nan nan nan nan nan nan nan nan nan nan nan nan nan nan nan nan nan nan nan nan nan nan nan 242 247 252 252 251 244 nan 269
nan nan nan nan nan nan nan nan nan nan nan nan 315 nan 319 335 nan 343 337 322 323 nan nan 331 335 330 nan 329 nan nan nan 336 nan 327 nan nan nan nan nan nan nan nan nan nan nan nan nan nan nan nan nan nan nan nan nan nan nan nan nan nan nan nan nan nan nan nan nan nan nan nan nan nan nan 247 nan nan nan nan nan nan 248 252 253 251 nan nan nan
nan nan nan nan nan nan nan nan nan nan 275 288 304 330 326 299 298 313 319 322 335 nan 332 nan 339 nan nan nan nan nan nan nan nan nan nan nan nan nan nan nan nan nan nan nan nan nan nan nan nan nan nan nan nan nan nan nan nan nan nan nan nan nan nan nan nan nan nan nan nan nan nan nan nan nan nan 242 nan nan nan 238 244 251 253 252 nan nan nan
nan nan nan nan nan nan nan nan 254 nan nan 6 336 nan 351 337 324 324 327 327 339 nan nan nan nan nan nan nan nan nan nan nan nan nan nan nan nan nan nan nan nan nan nan nan nan nan nan nan nan nan nan nan nan nan nan nan nan nan nan nan nan nan nan nan nan nan nan nan nan nan nan nan nan nan nan 237 nan 239 242 240 240 244 247 250 nan nan nan
nan nan nan nan nan nan nan nan nan 243 245 nan 311 335 337 348 343 342 334 343 331 nan nan nan nan nan nan nan nan nan nan nan nan nan nan nan nan nan nan nan nan nan nan nan nan nan nan nan nan nan nan nan nan nan nan nan nan nan nan nan nan nan nan nan nan nan nan nan nan nan nan nan nan nan nan nan 235 238 nan nan nan 238 245 nan nan nan nan
nan nan nan nan nan nan nan nan 188 279 nan 357 346 323 325 344 342 340 340 348 340 327 308 nan nan nan nan nan nan nan nan nan nan nan nan nan nan nan nan nan nan nan nan nan nan nan nan nan nan nan nan nan nan nan nan nan nan nan nan nan nan nan nan nan nan nan nan nan nan nan nan nan nan nan nan nan nan nan 244 242 237 235 241 nan nan nan nan
nan nan nan nan nan nan 54 10 291 306 nan 328 323 323 331 341 328 335 344 353 344 nan nan nan nan nan nan nan nan nan nan nan nan nan nan nan nan nan nan nan nan nan nan nan nan nan nan nan nan nan nan nan nan nan nan nan nan nan nan nan nan nan nan nan nan nan 288 nan nan 267 262 250 237 233 230 nan nan nan nan 240 238 236 nan nan nan nan nan